DW6386 Weather Reports


time (UTC)temp
C
wind
direction
speed
KPH
gust
KPH
rain 1hr
cm
rain 24hr
cm
rain mn
cm
humidity
%
barometer
mb
20260904081518 22 124 0.0 0.0 0.00 0.00 0.00 96 1013.7
20260904080019 22 124 0.0 0.0 0.00 0.00 0.00 96 1013.7
20260904074522 22 124 0.0 0.0 0.00 0.00 0.00 95 1013.7
20260904073016 22 124 0.0 0.0 0.00 0.00 0.00 95 1013.7
20260904071514 23 124 0.0 0.0 0.00 0.00 0.00 95 1013.6
20260904070015 23 124 0.0 0.0 0.00 0.00 0.00 95 1013.9
20260904064510 23 124 0.0 0.0 0.00 0.00 0.00 95 1013.9
20260904063009 23 124 0.0 0.0 0.00 0.00 0.00 94 1013.9
20260904061506 23 124 0.0 0.0 0.00 0.00 0.00 94 1014.0
20260904060006 23 122 0.0 0.0 0.00 0.00 0.00 94 1014.1
20260904054508 23 122 0.0 0.0 0.00 0.00 0.00 94 1014.3
20260904053002 23 122 0.0 0.0 0.00 0.00 0.00 94 1014.3
20260904051600 23 122 0.0 1.6 0.00 0.00 0.00 93 1014.4
20260904050059 24 122 0.0 0.0 0.00 0.00 0.00 93 1014.4
20260904044612 24 122 0.0 0.0 0.00 0.00 0.00 92 1014.5
20260904043059 24 122 0.0 0.0 0.00 0.00 0.00 92 1014.7
20260904041553 24 122 0.0 0.0 0.00 0.00 0.00 91 1014.5
20260904040057 25 122 0.0 0.0 0.00 0.00 0.00 91 1014.5
20260904034558 25 122 0.0 0.0 0.00 0.00 0.00 90 1014.7
20260904033053 25 122 0.0 0.0 0.00 0.00 0.00 90 1014.8
20260904031551 25 122 0.0 0.0 0.00 0.00 0.00 90 1014.9
20260904030058 25 122 0.0 0.0 0.00 0.00 0.00 90 1014.9
20260904024551 25 122 0.0 0.0 0.00 0.00 0.00 89 1014.7
20260904023052 25 122 0.0 0.0 0.00 0.00 0.00 89 1014.7
20260904021558 25 122 0.0 0.0 0.00 0.00 0.00 87 1014.5
20260904020049 26 122 0.0 0.0 0.00 0.00 0.00 86 1014.5
20260904014602 26 170 0.0 3.2 0.00 0.00 0.00 85 1014.3
20260904013112 26 210 0.0 3.2 0.00 0.00 0.00 85 1014.2
20260904011613 26 210 0.0 0.0 0.00 0.00 0.00 82 1013.7
20260904010049 27 210 0.0 0.0 0.00 0.00 0.00 81 1013.6
20260904004547 27 210 0.0 0.0 0.00 0.00 0.00 78 1013.3
20260904003047 28 210 0.0 0.0 0.00 0.00 0.00 77 1013.2
20260904001545 28 210 0.0 0.0 0.00 0.00 0.00 74 1013.0
20260904000045 29 210 0.0 0.0 0.00 0.00 0.00 71 1013.0
20260903234545 30 214 0.0 0.0 0.00 0.00 0.00 70 1012.9
20260903233044 31 214 0.0 0.0 0.00 0.00 0.00 68 1012.8
20260903231547 31 214 0.0 0.0 0.00 0.00 0.00 63 1012.8
20260903230044 32 214 0.0 0.0 0.00 0.00 0.00 61 1012.7
20260903224543 32 221 0.0 0.0 0.00 0.00 0.00 58 1012.7
20260903223042 33 229 0.0 3.2 0.00 0.00 0.00 57 1012.8
20260903221542 33 230 0.0 6.4 0.00 0.00 0.00 55 1012.6
20260903220045 33 222 1.6 4.8 0.00 0.00 0.00 55 1012.7
20260903214540 33 240 0.0 4.8 0.00 0.00 0.00 52 1012.7
20260903213040 34 176 0.0 1.6 0.00 0.00 0.00 52 1012.7
20260903211546 34 245 0.0 6.4 0.00 0.00 0.00 52 1012.9
20260903210051 35 229 0.0 4.8 0.00 0.00 0.00 51 1013.0
20260903204534 35 326 0.0 4.8 0.00 0.00 0.00 50 1013.1
20260903203034 35 217 0.0 12.9 0.00 0.00 0.00 49 1013.2
20260903201533 35 228 0.0 8.0 0.00 0.00 0.00 49 1013.4
20260903200029 35 139 0.0 6.4 0.00 0.00 0.00 47 1013.7
20260903194534 35 255 1.6 11.3 0.00 0.00 0.00 50 1013.8
20260903193028 35 290 0.0 8.0 0.00 0.00 0.00 53 1014.0
20260903191530 35 212 0.0 9.7 0.00 0.00 0.00 51 1014.1
20260903190020 35 328 1.6 9.7 0.00 0.00 0.00 53 1014.3
20260903184519 35 160 0.0 9.7 0.00 0.00 0.00 54 1014.4
20260903183014 35 278 0.0 6.4 0.00 0.00 0.00 57 1014.6
20260903181512 35 253 0.0 8.0 0.00 0.00 0.00 59 1014.9
20260903180019 35 244 0.0 3.2 0.00 0.00 0.00 57 1015.0
20260903174514 34 229 0.0 9.7 0.00 0.00 0.00 59 1015.2
20260903173006 34 349 1.6 8.0 0.00 0.00 0.00 60 1015.4
20260903171505 34 228 3.2 6.4 0.00 0.00 0.00 58 1015.6
20260903170002 33 227 3.2 6.4 0.00 0.00 0.00 62 1015.8
20260903164559 33 297 1.6 6.4 0.00 0.00 0.00 62 1016.0
20260903163057 32 269 0.0 6.4 0.00 0.00 0.00 62 1016.1
20260903161556 32 259 0.0 3.2 0.00 0.00 0.00 67 1016.2
20260903160052 32 186 0.0 3.2 0.00 0.00 0.00 68 1016.4
20260903154553 31 280 3.2 9.7 0.00 0.00 0.00 68 1016.5
20260903153049 31 269 1.6 6.4 0.00 0.00 0.00 70 1016.5
20260903151558 30 287 0.0 6.4 0.00 0.00 0.00 74 1016.4
20260903150048 30 201 0.0 3.2 0.00 0.00 0.00 72 1016.5
20260903144539 29 269 1.6 6.4 0.00 0.00 0.00 75 1016.5
20260903143039 29 302 0.0 4.8 0.00 0.00 0.00 74 1016.5
20260903141540 29 254 0.0 3.2 0.00 0.00 0.00 76 1016.5
20260903140027 28 153 0.0 1.6 0.00 0.00 0.00 78 1016.5
20260903134526 28 274 0.0 4.8 0.00 0.00 0.00 80 1016.6
20260903133022 28 224 0.0 3.2 0.00 0.00 0.00 81 1016.6
20260903131517 27 177 0.0 0.0 0.00 0.00 0.00 87 1016.7
20260903130017 26 186 0.0 0.0 0.00 0.00 0.00 94 1016.7
20260903124512 25 186 0.0 0.0 0.00 0.00 0.00 97 1016.7
20260903123007 23 186 0.0 0.0 0.00 0.00 0.00 98 1016.7
20260903121507 23 186 0.0 0.0 0.00 0.00 0.00 99 1016.6
20260903120004 21 186 0.0 0.0 0.00 0.00 0.00 98 1016.4
20260903114502 21 186 0.0 0.0 0.00 0.00 0.00 98 1016.3
20260903113002 21 186 0.0 0.0 0.00 0.00 0.00 98 1016.2
20260903111558 21 186 0.0 0.0 0.00 0.00 0.00 98 1016.0
20260903110059 21 186 0.0 0.0 0.00 0.00 0.00 98 1015.8
20260903104554 21 186 0.0 0.0 0.00 0.00 0.00 98 1015.6
20260903103054 21 186 0.0 0.0 0.00 0.00 0.00 98 1015.5
20260903101559 21 186 0.0 0.0 0.00 0.00 0.00 98 1015.4
20260903100053 21 186 0.0 0.0 0.00 0.00 0.00 98 1015.4
20260903094631 21 186 0.0 0.0 0.00 0.00 0.00 98 1015.4
20260903093051 21 186 0.0 0.0 0.00 0.00 0.00 98 1015.3
20260903091548 22 186 0.0 0.0 0.00 0.00 0.00 98 1015.5
20260903090049 22 186 0.0 0.0 0.00 0.00 0.00 97 1015.5
20260903084546 22 186 0.0 0.0 0.00 0.00 0.00 98 1015.5
20260903083045 22 186 0.0 0.0 0.00 0.00 0.00 97 1015.4